Location: Pian di Sc�
(43.6333°N, 11.5500°E)
Time: 18:59:33
(UTC+00:00)

Cosmos 2297 Rocket - Pass Details

Date: 07 August 2020
Orbit: 838 x 845 km, 71.0° (Epoch: 20 September)

Event Time Altitude Azimuth Distance (km) Brightness Sun altitude
Exits shadow 00:46:08 67° 132° (SE) 907 2.2 -26.8°
Maximum altitude 00:46:25 68° 111° (ESE) 900 2.2 -26.8°
Drops below altitude 10° 00:52:02 10° 30° (NNE) 2,464 5.6 -26.4°
Sets 00:54:29 0° 28° (NNE) 3,404 6.7 -26.2°
